Back to catalog

CZ-3B R/B

AliveLPO
NORAD 43846·ROCKET BODY·🇨🇳 China

Launched Dec 7, 2018 from Xichang Satellite Launch Center

Loading…

TLE

StaleSource: Space-Track

Epoch: Apr 5, 2024, 20:58 UTC

1 43846U 18103B   24096.87404494 -.00009917  00000-0  00000-0 0  9996
2 43846  31.9415  54.2907 1190432 266.5194 105.7077  0.01195432   103

Track CZ-3B R/B in real time with AllMySat

Download on the App Store